KC5DAQ-25 Weather Reports


Display with metric or nautical units.
time (UTC)temp
F
wind
direction
speed
MPH
gust
MPH
rain 1hr
in
rain 24hr
in
rain mn
in
humidity
%
barometer
mb
20260504201136 79 8 1.0 3.0 0.00 0.00 0.00 67 1004.1
20260504201035 79 97 1.0 3.0 0.00 0.00 0.00 68 1004.2
20260504200934 79 274 1.0 3.0 0.00 0.00 0.00 69 1004.2
20260504200836 79 317 1.0 3.0 0.00 0.00 0.00 67 1004.2
20260504200738 79 214 0.0 2.0 0.00 0.00 0.00 67 1004.2
20260504200630 79 219 0.0 2.0 0.00 0.00 0.00 68 1004.3
20260504200519 79 227 0.0 2.0 0.00 0.00 0.00 68 1004.3
20260504200417 80 227 0.0 2.0 0.00 0.00 0.00 68 1004.3
20260504200315 80 231 0.0 2.0 0.00 0.00 0.00 68 1004.3
20260504200215 80 231 0.0 2.0 0.00 0.00 0.00 68 1004.3
20260504200108 80 233 0.0 3.0 0.00 0.00 0.00 67 1004.3
20260504200004 80 233 0.0 3.0 0.00 0.00 0.00 67 1004.3
20260504195904 79 233 1.0 3.0 0.00 0.00 0.00 69 1004.3
20260504195803 79 227 1.0 3.0 0.00 0.00 0.00 69 1004.4
20260504195703 79 217 1.0 3.0 0.00 0.00 0.00 68 1004.5
20260504195604 79 309 1.0 3.0 0.00 0.00 0.00 68 1004.6
20260504195504 79 254 1.0 3.0 0.00 0.00 0.00 69 1004.6
20260504195403 79 18 1.0 3.0 0.00 0.00 0.00 68 1004.6
20260504195304 79 117 1.0 5.0 0.00 0.00 0.00 68 1004.5
20260504195202 79 210 2.0 5.0 0.00 0.00 0.00 68 1004.6
20260504195104 80 138 1.0 5.0 0.00 0.00 0.00 67 1004.6
20260504195002 80 138 0.0 5.0 0.00 0.00 0.00 67 1004.6
20260504194902 80 121 0.0 5.0 0.00 0.00 0.00 66 1004.6
20260504194803 80 120 0.0 5.0 0.00 0.00 0.00 66 1004.6
20260504194702 80 120 0.0 5.0 0.00 0.00 0.00 66 1004.6
20260504194602 80 244 0.0 5.0 0.00 0.00 0.00 66 1004.7
20260504194505 80 244 2.0 5.0 0.00 0.00 0.00 66 1004.7
20260504194403 80 343 1.0 5.0 0.00 0.00 0.00 68 1004.7
20260504194302 80 199 0.0 3.0 0.00 0.00 0.00 69 1004.7
20260504194203 80 296 0.0 3.0 0.00 0.00 0.00 67 1004.8
20260504194104 80 296 0.0 3.0 0.00 0.00 0.00 67 1004.7
20260504194003 80 296 1.0 3.0 0.00 0.00 0.00 67 1004.8
20260504193903 80 305 1.0 3.0 0.00 0.00 0.00 65 1004.8
20260504193802 80 245 1.0 3.0 0.00 0.00 0.00 67 1004.8
20260504193703 80 329 1.0 3.0 0.00 0.00 0.00 66 1004.7
20260504193602 80 281 0.0 3.0 0.00 0.00 0.00 65 1004.7
20260504193503 80 281 1.0 3.0 0.00 0.00 0.00 65 1004.7
20260504193403 80 281 2.0 3.0 0.00 0.00 0.00 66 1004.6
20260504193302 80 96 1.0 3.0 0.00 0.00 0.00 66 1004.6
20260504193208 80 92 0.0 2.0 0.00 0.00 0.00 66 1004.7
20260504193104 80 241 0.0 4.0 0.00 0.00 0.00 66 1004.7
20260504193004 80 241 1.0 4.0 0.00 0.00 0.00 68 1004.8
20260504192904 80 251 1.0 4.0 0.00 0.00 0.00 68 1004.8
20260504192802 80 310 1.0 4.0 0.00 0.00 0.00 68 1004.8
20260504192704 80 203 1.0 4.0 0.00 0.00 0.00 67 1004.8
20260504192602 80 197 1.0 4.0 0.00 0.00 0.00 67 1004.8
20260504192504 80 197 1.0 4.0 0.00 0.00 0.00 67 1004.8
20260504192402 80 266 1.0 4.0 0.00 0.00 0.00 67 1004.8
20260504192304 80 128 1.0 4.0 0.00 0.00 0.00 67 1004.8
20260504192202 80 78 1.0 4.0 0.00 0.00 0.00 69 1004.8
20260504192103 80 254 1.0 3.0 0.00 0.00 0.00 69 1004.8
20260504192003 79 319 1.0 3.0 0.00 0.00 0.00 69 1004.8
20260504191904 79 147 0.0 3.0 0.00 0.00 0.00 67 1004.9
20260504191803 79 148 1.0 3.0 0.00 0.00 0.00 67 1004.9
20260504191704 79 334 1.0 3.0 0.00 0.00 0.00 70 1004.9
20260504191604 79 275 1.0 3.0 0.00 0.00 0.00 70 1004.9
20260504191505 78 27 0.0 3.0 0.00 0.00 0.00 68 1005.0
20260504191404 78 28 0.0 3.0 0.00 0.00 0.00 68 1004.9
20260504191303 78 148 1.0 3.0 0.00 0.00 0.00 68 1005.0
20260504191134 78 149 2.0 3.0 0.00 0.00 0.00 68 1005.0
20260504191034 78 149 1.0 3.0 0.00 0.00 0.00 68 1005.0
20260504190933 78 109 0.0 3.0 0.00 0.00 0.00 68 1005.1
20260504190833 78 109 1.0 3.0 0.00 0.00 0.00 68 1005.1
20260504190733 78 37 1.0 3.0 0.00 0.00 0.00 68 1005.2
20260504190633 78 137 1.0 3.0 0.00 0.00 0.00 67 1005.1
20260504190533 79 125 2.0 3.0 0.00 0.00 0.00 66 1005.2
20260504190434 79 223 1.0 3.0 0.00 0.00 0.00 66 1005.2
20260504190335 79 169 1.0 2.0 0.00 0.00 0.00 66 1005.3
20260504190233 79 169 0.0 2.0 0.00 0.00 0.00 68 1005.2
20260504190134 79 169 0.0 2.0 0.00 0.00 0.00 66 1005.3
20260504190035 79 169 0.0 2.0 0.00 0.00 0.00 66 1005.3
20260504185933 80 169 0.0 2.0 0.00 0.00 0.00 66 1005.3
20260504185833 80 169 1.0 2.0 0.00 0.00 0.00 68 1005.3
20260504185735 80 169 1.0 2.0 0.00 0.00 0.00 68 1005.3
20260504185634 80 169 0.0 2.0 0.00 0.00 0.00 68 1005.4
20260504185533 79 168 1.0 2.0 0.00 0.00 0.00 65 1005.3
20260504185433 79 169 1.0 2.0 0.00 0.00 0.00 69 1005.3
20260504185334 79 114 1.0 2.0 0.00 0.00 0.00 69 1005.4
20260504185233 79 114 1.0 2.0 0.00 0.00 0.00 69 1005.4
20260504185134 79 117 1.0 3.0 0.00 0.00 0.00 69 1005.3
20260504185033 79 21 1.0 3.0 0.00 0.00 0.00 69 1005.4
20260504184933 79 337 0.0 3.0 0.00 0.00 0.00 70 1005.3
20260504184835 79 337 0.0 3.0 0.00 0.00 0.00 66 1005.3
20260504184734 78 338 1.0 3.0 0.00 0.00 0.00 66 1005.3
20260504184633 79 176 1.0 3.0 0.00 0.00 0.00 66 1005.4
20260504184534 79 196 1.0 3.0 0.00 0.00 0.00 66 1005.4
20260504184435 79 327 1.0 3.0 0.00 0.00 0.00 65 1005.4
20260504184335 79 327 1.0 3.0 0.00 0.00 0.00 65 1005.4
20260504184233 79 354 1.0 3.0 0.00 0.00 0.00 66 1005.4
20260504184135 79 106 0.0 3.0 0.00 0.00 0.00 68 1005.4
20260504184033 79 51 0.0 3.0 0.00 0.00 0.00 67 1005.5
20260504183933 79 51 1.0 3.0 0.00 0.00 0.00 67 1005.5
20260504183833 79 68 2.0 4.0 0.00 0.00 0.00 65 1005.5
20260504183733 79 34 2.0 4.0 0.00 0.00 0.00 67 1005.6
20260504183632 79 144 2.0 4.0 0.00 0.00 0.00 66 1005.5
20260504183533 79 266 2.0 4.0 0.00 0.00 0.00 65 1005.5
20260504183433 79 272 1.0 4.0 0.00 0.00 0.00 65 1005.6
20260504183333 79 305 1.0 5.0 0.00 0.00 0.00 65 1005.5
20260504183232 79 274 1.0 5.0 0.00 0.00 0.00 65 1005.6
20260504183132 79 350 1.0 5.0 0.00 0.00 0.00 65 1005.6
20260504183033 79 350 2.0 5.0 0.00 0.00 0.00 64 1005.6
20260504182933 79 324 1.0 5.0 0.00 0.00 0.00 64 1005.6
20260504182833 79 276 1.0 5.0 0.00 0.00 0.00 64 1005.6
20260504182733 79 231 1.0 5.0 0.00 0.00 0.00 64 1005.6
20260504182633 80 120 1.0 5.0 0.00 0.00 0.00 66 1005.6
20260504182533 79 340 2.0 5.0 0.00 0.00 0.00 67 1005.6
20260504182433 79 130 2.0 5.0 0.00 0.00 0.00 67 1005.6
20260504182332 79 165 2.0 4.0 0.00 0.00 0.00 68 1005.7
20260504182232 79 165 2.0 4.0 0.00 0.00 0.00 66 1005.6
20260504182133 79 334 2.0 4.0 0.00 0.00 0.00 66 1005.6
20260504182032 79 257 2.0 4.0 0.00 0.00 0.00 65 1005.6
20260504181933 79 257 2.0 4.0 0.00 0.00 0.00 65 1005.7
20260504181832 79 138 1.0 4.0 0.00 0.00 0.00 65 1005.7
20260504181730 78 302 0.0 4.0 0.00 0.00 0.00 65 1005.8
20260504181631 79 302 0.0 4.0 0.00 0.00 0.00 65 1005.8
20260504181531 79 300 1.0 4.0 0.00 0.00 0.00 65 1005.7
20260504181431 79 300 2.0 4.0 0.00 0.00 0.00 65 1005.7
20260504181334 79 175 1.0 3.0 0.00 0.00 0.00 65 1005.7
20260504181232 80 175 1.0 3.0 0.00 0.00 0.00 65 1005.6
20260504181133 80 102 1.0 3.0 0.00 0.00 0.00 65 1005.6
20260504181030 80 235 1.0 3.0 0.00 0.00 0.00 65 1005.5
20260504180931 80 258 1.0 3.0 0.00 0.00 0.00 65 1005.6
20260504180833 80 24 1.0 3.0 0.00 0.00 0.00 65 1005.6
20260504180718 80 34 2.0 3.0 0.00 0.00 0.00 64 1005.6
20260504180618 80 13 2.0 3.0 0.00 0.00 0.00 64 1005.6
20260504180515 80 11 2.0 3.0 0.00 0.00 0.00 67 1005.7
20260504180411 80 305 1.0 3.0 0.00 0.00 0.00 67 1005.8
20260504180307 80 317 1.0 3.0 0.00 0.00 0.00 66 1005.8
20260504180204 80 217 1.0 3.0 0.00 0.00 0.00 66 1005.8
20260504180104 80 217 1.0 3.0 0.00 0.00 0.00 64 1005.8
20260504180003 80 176 1.0 4.0 0.00 0.00 0.00 64 1005.9
20260504175902 80 3 0.0 4.0 0.00 0.00 0.00 64 1005.9
20260504175803 80 7 1.0 4.0 0.00 0.00 0.00 64 1005.9
20260504175702 80 226 1.0 4.0 0.00 0.00 0.00 64 1006.0
20260504175607 80 224 2.0 4.0 0.00 0.00 0.00 66 1006.0
20260504175504 80 210 1.0 4.0 0.00 0.00 0.00 66 1006.0
20260504175402 80 188 1.0 4.0 0.00 0.00 0.00 66 1005.9
20260504175304 80 216 1.0 4.0 0.00 0.00 0.00 63 1006.0
20260504175202 80 298 2.0 4.0 0.00 0.00 0.00 63 1006.1
20260504175101 80 302 2.0 4.0 0.00 0.00 0.00 65 1006.0
20260504175004 80 355 2.0 4.0 0.00 0.00 0.00 65 1006.0
20260504174904 80 133 2.0 4.0 0.00 0.00 0.00 64 1006.1
20260504174804 80 118 2.0 4.0 0.00 0.00 0.00 64 1006.0
20260504174713 80 159 1.0 4.0 0.00 0.00 0.00 64 1006.0
20260504174604 80 227 1.0 4.0 0.00 0.00 0.00 64 1006.0
20260504174504 80 275 1.0 4.0 0.00 0.00 0.00 65 1006.0
20260504174403 80 299 2.0 4.0 0.00 0.00 0.00 65 1006.0
20260504174303 79 243 1.0 4.0 0.00 0.00 0.00 65 1006.1
20260504174204 79 200 2.0 4.0 0.00 0.00 0.00 65 1006.1
20260504174103 79 202 3.0 4.0 0.00 0.00 0.00 65 1006.0
20260504174003 79 127 2.0 6.0 0.00 0.00 0.00 66 1006.1
20260504173902 79 10 1.0 6.0 0.00 0.00 0.00 66 1006.0
20260504173803 79 72 1.0 6.0 0.00 0.00 0.00 66 1006.0
20260504173704 79 72 2.0 6.0 0.00 0.00 0.00 66 1006.0
20260504173604 79 219 2.0 6.0 0.00 0.00 0.00 66 1006.1
20260504173505 79 175 1.0 6.0 0.00 0.00 0.00 66 1006.0
20260504173404 79 295 0.0 6.0 0.00 0.00 0.00 66 1006.1
20260504173302 79 281 1.0 6.0 0.00 0.00 0.00 66 1006.0
20260504173202 79 281 2.0 6.0 0.00 0.00 0.00 66 1006.1
20260504173104 79 324 2.0 6.0 0.00 0.00 0.00 66 1006.1
20260504173003 79 106 1.0 3.0 0.00 0.00 0.00 66 1006.1
20260504172903 79 104 1.0 4.0 0.00 0.00 0.00 67 1006.1
20260504172804 79 106 1.0 4.0 0.00 0.00 0.00 67 1006.2
20260504172703 79 103 1.0 4.0 0.00 0.00 0.00 67 1006.2
20260504172604 79 213 1.0 4.0 0.00 0.00 0.00 67 1006.2
20260504172454 79 310 2.0 4.0 0.00 0.00 0.00 67 1006.2
20260504172350 79 231 2.0 4.0 0.00 0.00 0.00 66 1006.3
20260504172246 79 138 1.0 4.0 0.00 0.00 0.00 65 1006.2
20260504172144 78 109 2.0 4.0 0.00 0.00 0.00 65 1006.2
20260504172037 78 78 2.0 4.0 0.00 0.00 0.00 65 1006.1
20260504171939 78 131 2.0 4.0 0.00 0.00 0.00 65 1006.2
20260504171834 78 116 2.0 3.0 0.00 0.00 0.00 65 1006.3
20260504171732 78 109 2.0 3.0 0.00 0.00 0.00 67 1006.3
20260504171632 78 87 1.0 3.0 0.00 0.00 0.00 67 1006.4
20260504171531 78 72 1.0 3.0 0.00 0.00 0.00 66 1006.4
20260504171431 78 348 1.0 3.0 0.00 0.00 0.00 67 1006.3
20260504171331 78 233 0.0 4.0 0.00 0.00 0.00 67 1006.4
20260504171235 78 231 1.0 4.0 0.00 0.00 0.00 67 1006.5
20260504171131 78 231 1.0 4.0 0.00 0.00 0.00 68 1006.5
20260504171031 78 120 0.0 4.0 0.00 0.00 0.00 66 1006.5
20260504170932 78 117 1.0 4.0 0.00 0.00 0.00 66 1006.5
20260504170832 78 120 1.0 4.0 0.00 0.00 0.00 66 1006.5
20260504170727 78 117 2.0 4.0 0.00 0.00 0.00 68 1006.5
20260504170624 78 16 2.0 4.0 0.00 0.00 0.00 68 1006.6
20260504170515 77 144 1.0 4.0 0.00 0.00 0.00 69 1006.6
20260504170408 77 97 1.0 4.0 0.00 0.00 0.00 69 1006.6
20260504170303 77 245 1.0 4.0 0.00 0.00 0.00 69 1006.7
20260504170204 77 155 1.0 4.0 0.00 0.00 0.00 68 1006.7
20260504170104 77 155 2.0 4.0 0.00 0.00 0.00 66 1006.6
20260504160431 76 296 1.0 6.0 0.00 0.00 0.00 69 1007.3
20260504160331 76 55 1.0 6.0 0.00 0.00 0.00 71 1007.3
20260504160231 76 56 1.0 6.0 0.00 0.00 0.00 71 1007.3
20260504160131 75 107 1.0 6.0 0.00 0.00 0.00 69 1007.3
20260504151128 74 71 1.0 3.0 0.00 0.00 0.00 73 1007.4
20260504151030 73 0 0.0 3.0 0.00 0.00 0.00 72 1007.4
20260504150930 73 0 1.0 3.0 0.00 0.00 0.00 72 1007.4
20260504150830 73 0 1.0 3.0 0.00 0.00 0.00 72 1007.4
20260504150731 73 282 1.0 3.0 0.00 0.00 0.00 73 1007.4
20260504150631 73 0 1.0 3.0 0.00 0.00 0.00 73 1007.4
20260504150531 72 307 1.0 3.0 0.00 0.00 0.00 73 1007.4
20260504150429 72 307 2.0 3.0 0.00 0.00 0.00 73 1007.4
20260504150331 72 179 1.0 3.0 0.00 0.00 0.00 73 1007.4
20260504150224 72 158 1.0 3.0 0.00 0.00 0.00 74 1007.4
20260504150127 72 192 1.0 3.0 0.00 0.00 0.00 74 1007.5
20260504141331 62 0 0.0 1.0 0.00 0.00 0.00 88 1007.4
20260504141231 62 89 0.0 1.0 0.00 0.00 0.00 88 1007.5
20260504141132 62 0 0.0 1.0 0.00 0.00 0.00 88 1007.4
20260504141031 62 0 0.0 1.0 0.00 0.00 0.00 88 1007.4
20260504140931 62 0 0.0 1.0 0.00 0.00 0.00 88 1007.4
20260504140833 62 0 0.0 2.0 0.00 0.00 0.00 88 1007.5
20260504140730 62 0 0.0 2.0 0.00 0.00 0.00 88 1007.4
20260504140631 62 0 0.0 2.0 0.00 0.00 0.00 88 1007.4
20260504140531 62 0 0.0 2.0 0.00 0.00 0.00 88 1007.5
20260504140431 62 0 0.0 2.0 0.00 0.00 0.00 88 1007.4
20260504140332 61 0 0.0 2.0 0.00 0.00 0.00 88 1007.4
20260504140233 61 0 0.0 2.0 0.00 0.00 0.00 88 1007.5
20260504140131 61 0 0.0 2.0 0.00 0.00 0.00 88 1007.5
20260504130735 57 141 0.0 0.0 0.00 0.00 0.00 87 1007.5
20260504130627 57 141 0.0 0.0 0.00 0.00 0.00 87 1007.4
20260504130526 56 141 0.0 0.0 0.00 0.00 0.00 87 1007.4
20260504130426 56 141 0.0 0.0 0.00 0.00 0.00 87 1007.3
20260504130327 56 141 0.0 0.0 0.00 0.00 0.00 87 1007.3
20260504130226 56 141 0.0 0.0 0.00 0.00 0.00 87 1007.3
20260504130125 56 141 0.0 0.0 0.00 0.00 0.00 87 1007.3
20260504120224 55 141 0.0 0.0 0.00 0.00 0.00 86 1007.2
20260504120125 55 141 0.0 0.0 0.00 0.00 0.00 86 1007.3
20260504110717 56 141 0.0 0.0 0.00 0.00 0.00 86 1006.9
20260504110617 56 141 0.0 0.0 0.00 0.00 0.00 86 1006.8
20260504110514 56 141 0.0 0.0 0.00 0.00 0.00 86 1006.8
20260504110411 56 141 0.0 0.0 0.00 0.00 0.00 86 1006.8
20260504110308 56 141 0.0 0.0 0.00 0.00 0.00 86 1006.8
20260504110203 56 141 0.0 0.0 0.00 0.00 0.00 86 1006.8
20260504110103 56 141 0.0 0.0 0.00 0.00 0.00 86 1006.9
20260504100537 57 141 0.0 0.0 0.00 0.00 0.00 85 1007.0
20260504100440 57 141 0.0 0.0 0.00 0.00 0.00 85 1007.1
20260504100333 57 141 0.0 0.0 0.00 0.00 0.00 85 1007.0
20260504100232 57 141 0.0 0.0 0.00 0.00 0.00 85 1007.1
20260504100128 57 141 0.0 0.0 0.00 0.00 0.00 85 1007.2
20260504081919 58 141 0.0 0.0 0.00 0.00 0.00 85 1007.7
20260504081820 58 141 0.0 0.0 0.00 0.00 0.00 85 1007.7
20260504081719 58 141 0.0 0.0 0.00 0.00 0.00 85 1007.7
20260504081619 58 141 0.0 0.0 0.00 0.00 0.00 85 1007.7
20260504081520 58 141 0.0 0.0 0.00 0.00 0.00 85 1007.7
20260504081419 58 141 0.0 0.0 0.00 0.00 0.00 85 1007.7
20260504081320 58 141 0.0 0.0 0.00 0.00 0.00 85 1007.7
20260504081222 58 141 0.0 0.0 0.00 0.00 0.00 85 1007.7
20260504081120 58 141 0.0 0.0 0.00 0.00 0.00 85 1007.7
20260504081019 58 141 0.0 0.0 0.00 0.00 0.00 85 1007.7
20260504080920 58 141 0.0 0.0 0.00 0.00 0.00 85 1007.7
20260504080821 58 141 0.0 0.0 0.00 0.00 0.00 85 1007.7
20260504080720 58 141 0.0 0.0 0.00 0.00 0.00 85 1007.8
20260504080620 58 141 0.0 0.0 0.00 0.00 0.00 85 1007.7
20260504080519 58 141 0.0 0.0 0.00 0.00 0.00 85 1007.7
20260504080419 58 141 0.0 0.0 0.00 0.00 0.00 85 1007.7
20260504080319 58 141 0.0 0.0 0.00 0.00 0.00 85 1007.7
20260504080218 58 141 0.0 0.0 0.00 0.00 0.00 85 1007.8
20260504080119 58 141 0.0 0.0 0.00 0.00 0.00 85 1007.7
20260504070332 59 141 0.0 0.0 0.00 0.00 0.00 84 1009.1
20260504070223 59 141 0.0 0.0 0.00 0.00 0.00 84 1009.1
20260504070121 59 141 0.0 0.0 0.00 0.00 0.00 84 1009.1
20260504060202 59 141 0.0 0.0 0.00 0.00 0.00 84 1009.4
20260504050701 60 141 0.0 0.0 0.00 0.00 0.00 81 1009.7
20260504050602 60 141 0.0 0.0 0.00 0.00 0.00 81 1009.8
20260504050502 60 141 0.0 0.0 0.00 0.00 0.00 80 1009.7
20260504050402 60 141 0.0 0.0 0.00 0.00 0.00 80 1009.8
20260504050303 60 141 0.0 0.0 0.00 0.00 0.00 80 1009.7
20260504050202 60 141 0.0 0.0 0.00 0.00 0.00 80 1009.9
20260504050002 60 141 0.0 0.0 0.00 0.00 0.00 80 1009.9
20260504045903 60 141 0.0 0.0 0.00 0.00 0.00 80 1009.9
20260504045802 60 141 0.0 0.0 0.00 0.00 0.00 80 1010.0
20260504045703 60 141 0.0 0.0 0.00 0.00 0.00 80 1009.9
20260504045602 60 141 0.0 0.0 0.00 0.00 0.00 80 1009.9
20260504045503 60 141 0.0 0.0 0.00 0.00 0.00 80 1009.9
20260504045402 60 141 0.0 0.0 0.00 0.00 0.00 79 1009.9
20260504045304 60 141 0.0 0.0 0.00 0.00 0.00 79 1009.9
20260504045204 60 141 0.0 0.0 0.00 0.00 0.00 79 1009.9
20260504045102 60 141 0.0 0.0 0.00 0.00 0.00 79 1009.9
20260504045003 60 141 0.0 0.0 0.00 0.00 0.00 79 1009.9
20260504044902 60 141 0.0 0.0 0.00 0.00 0.00 79 1009.9
20260504044803 60 141 0.0 0.0 0.00 0.00 0.00 79 1009.8
20260504044702 60 141 0.0 0.0 0.00 0.00 0.00 79 1009.8
20260504044603 60 141 0.0 0.0 0.00 0.00 0.00 79 1009.8
20260504044504 60 141 0.0 0.0 0.00 0.00 0.00 79 1009.9
20260504044402 60 141 0.0 0.0 0.00 0.00 0.00 79 1009.9
20260504044303 60 141 0.0 0.0 0.00 0.00 0.00 79 1009.9
20260504044202 60 141 0.0 0.0 0.00 0.00 0.00 78 1010.0
20260504044103 60 141 0.0 0.0 0.00 0.00 0.00 78 1010.0
20260504044004 61 141 0.0 0.0 0.00 0.00 0.00 78 1009.9
20260504043903 61 141 0.0 0.0 0.00 0.00 0.00 78 1010.0
20260504043802 61 141 0.0 0.0 0.00 0.00 0.00 78 1010.0
20260504043700 61 141 0.0 0.0 0.00 0.00 0.00 79 1009.9
20260504043603 61 141 0.0 0.0 0.00 0.00 0.00 79 1010.0
20260504043500 61 141 0.0 0.0 0.00 0.00 0.00 79 1010.1
20260504043359 61 141 0.0 0.0 0.00 0.00 0.00 78 1010.1
20260504043258 61 141 0.0 0.0 0.00 0.00 0.00 78 1010.1
20260504043155 61 141 0.0 0.0 0.00 0.00 0.00 78 1010.1
20260504043052 61 141 0.0 0.0 0.00 0.00 0.00 79 1010.0
20260504042942 61 141 0.0 0.0 0.00 0.00 0.00 79 1010.1
20260504042835 61 141 0.0 0.0 0.00 0.00 0.00 79 1010.1
20260504042732 61 141 0.0 0.0 0.00 0.00 0.00 79 1010.1
20260504042631 61 141 0.0 0.0 0.00 0.00 0.00 79 1010.0
20260504042531 61 141 0.0 0.0 0.00 0.00 0.00 79 1010.1
20260504042431 61 141 0.0 0.0 0.00 0.00 0.00 79 1010.1
20260504042329 61 141 0.0 0.0 0.00 0.00 0.00 79 1010.1
20260504042231 61 141 0.0 0.0 0.00 0.00 0.00 79 1010.0
20260504042129 61 141 0.0 0.0 0.00 0.00 0.00 79 1010.0
20260504042031 61 141 0.0 0.0 0.00 0.00 0.00 79 1009.9
20260504041928 61 141 0.0 0.0 0.00 0.00 0.00 79 1009.9
20260504041825 61 141 0.0 0.0 0.00 0.00 0.00 79 1010.0
20260504041715 61 141 0.0 0.0 0.00 0.00 0.00 79 1010.0
20260504041615 61 141 0.0 0.0 0.00 0.00 0.00 79 1009.9
20260504041515 61 141 0.0 0.0 0.00 0.00 0.00 78 1010.0
20260504041415 61 141 0.0 0.0 0.00 0.00 0.00 78 1009.9
20260504041313 61 141 0.0 0.0 0.00 0.00 0.00 78 1009.9
20260504041214 61 141 0.0 0.0 0.00 0.00 0.00 78 1010.0
20260504041114 61 141 0.0 0.0 0.00 0.00 0.00 78 1009.9
20260504041014 61 141 0.0 0.0 0.00 0.00 0.00 79 1010.0
20260504040914 61 141 0.0 0.0 0.00 0.00 0.00 79 1010.0
20260504040814 61 141 0.0 0.0 0.00 0.00 0.00 79 1010.0
20260504040715 61 141 0.0 0.0 0.00 0.00 0.00 79 1010.1
20260504040615 61 141 0.0 0.0 0.00 0.00 0.00 79 1010.1
20260504040514 61 141 0.0 0.0 0.00 0.00 0.00 79 1010.0
20260504040413 61 141 0.0 0.0 0.00 0.00 0.00 79 1010.1
20260504040314 61 141 0.0 0.0 0.00 0.00 0.00 79 1010.1
20260504040213 61 141 0.0 0.0 0.00 0.00 0.00 79 1010.0
20260504040117 61 141 0.0 0.0 0.00 0.00 0.00 79 1010.0
20260504040014 61 141 0.0 0.0 0.00 0.00 0.00 79 1010.1
20260504035913 61 141 0.0 0.0 0.00 0.00 0.00 79 1010.1
20260504035813 61 141 0.0 0.0 0.00 0.00 0.00 79 1010.1
20260504035713 61 141 0.0 0.0 0.00 0.00 0.00 79 1010.1
20260504035614 61 141 0.0 2.0 0.00 0.00 0.00 78 1010.1
20260504035511 61 141 0.0 2.0 0.00 0.00 0.00 78 1010.0
20260504035408 61 141 0.0 2.0 0.00 0.00 0.00 79 1010.0
20260504035310 61 141 0.0 2.0 0.00 0.00 0.00 79 1010.0
20260504035208 61 141 0.0 2.0 0.00 0.00 0.00 78 1010.1
20260504035105 61 141 0.0 2.0 0.00 0.00 0.00 78 1010.1
20260504035005 61 141 0.0 2.0 0.00 0.00 0.00 78 1010.1
20260504034904 61 141 0.0 2.0 0.00 0.00 0.00 78 1010.1
20260504034803 61 141 0.0 2.0 0.00 0.00 0.00 78 1010.1
20260504034702 61 141 0.0 2.0 0.00 0.00 0.00 78 1010.1
20260504034603 61 117 0.0 0.0 0.00 0.00 0.00 78 1010.1
20260504034502 61 117 0.0 0.0 0.00 0.00 0.00 78 1010.1
20260504034403 61 117 0.0 0.0 0.00 0.00 0.00 78 1010.0
20260504034304 61 117 0.0 0.0 0.00 0.00 0.00 78 1010.0
20260504034200 61 117 0.0 0.0 0.00 0.00 0.00 77 1010.0
20260504034058 61 117 0.0 0.0 0.00 0.00 0.00 77 1009.9
20260504033947 61 117 0.0 0.0 0.00 0.00 0.00 77 1009.9
20260504033841 61 117 0.0 0.0 0.00 0.00 0.00 78 1009.9
20260504033743 62 117 0.0 0.0 0.00 0.00 0.00 78 1009.9
20260504033637 62 117 0.0 0.0 0.00 0.00 0.00 78 1009.9
20260504033533 62 117 0.0 0.0 0.00 0.00 0.00 78 1010.0
20260504033431 62 117 0.0 0.0 0.00 0.00 0.00 77 1009.9
20260504033333 62 117 0.0 0.0 0.00 0.00 0.00 77 1009.9
20260504033217 62 117 0.0 0.0 0.00 0.00 0.00 77 1009.9
20260504033114 62 117 0.0 0.0 0.00 0.00 0.00 78 1009.9
20260504033013 62 117 0.0 0.0 0.00 0.00 0.00 77 1009.9
20260504032914 62 117 0.0 0.0 0.00 0.00 0.00 77 1010.0
20260504032814 62 117 0.0 0.0 0.00 0.00 0.00 77 1010.0
20260504032714 62 117 0.0 0.0 0.00 0.00 0.00 77 1010.0
20260504032613 62 117 0.0 0.0 0.00 0.00 0.00 77 1010.0
20260504032514 62 117 0.0 0.0 0.00 0.00 0.00 77 1009.9
20260504032414 62 117 0.0 0.0 0.00 0.00 0.00 77 1009.9
20260504032313 62 117 0.0 0.0 0.00 0.00 0.00 76 1009.9
20260504032213 62 117 0.0 0.0 0.00 0.00 0.00 77 1009.9
20260504032112 62 117 0.0 0.0 0.00 0.00 0.00 77 1009.9
20260504032013 62 117 0.0 0.0 0.00 0.00 0.00 77 1009.9
20260504031913 62 117 0.0 0.0 0.00 0.00 0.00 76 1009.9
20260504031815 62 117 0.0 0.0 0.00 0.00 0.00 76 1009.9
20260504031714 62 117 0.0 0.0 0.00 0.00 0.00 76 1009.8
20260504031613 63 117 0.0 0.0 0.00 0.00 0.00 77 1009.8
20260504031512 63 117 0.0 0.0 0.00 0.00 0.00 77 1009.8
20260504031414 63 117 0.0 0.0 0.00 0.00 0.00 77 1009.8
20260504031313 63 117 0.0 0.0 0.00 0.00 0.00 77 1009.8
20260504031213 63 117 0.0 0.0 0.00 0.00 0.00 77 1009.8
20260504031114 63 117 0.0 0.0 0.00 0.00 0.00 77 1009.8
20260504031015 63 117 0.0 0.0 0.00 0.00 0.00 77 1009.8
20260504030915 63 117 0.0 0.0 0.00 0.00 0.00 77 1009.8
20260504030812 63 117 0.0 0.0 0.00 0.00 0.00 77 1009.7
20260504030713 63 117 0.0 0.0 0.00 0.00 0.00 77 1009.7
20260504030614 63 117 0.0 0.0 0.00 0.00 0.00 77 1009.8
20260504030512 63 117 0.0 0.0 0.00 0.00 0.00 77 1009.8
20260504030412 63 117 0.0 0.0 0.00 0.00 0.00 77 1009.8
20260504030313 63 117 0.0 0.0 0.00 0.00 0.00 77 1009.7
20260504030214 63 117 0.0 0.0 0.00 0.00 0.00 78 1009.7
20260504030105 63 117 0.0 0.0 0.00 0.00 0.00 77 1009.7
20260504030004 63 117 0.0 0.0 0.00 0.00 0.00 77 1009.7
20260504025903 63 117 0.0 0.0 0.00 0.00 0.00 77 1009.7
20260504025803 63 117 0.0 0.0 0.00 0.00 0.00 77 1009.8
20260504025704 63 117 0.0 0.0 0.00 0.00 0.00 78 1009.8
20260504025602 63 117 0.0 0.0 0.00 0.00 0.00 78 1009.7
20260504025503 63 117 0.0 0.0 0.00 0.00 0.00 78 1009.7
20260504025403 63 117 0.0 0.0 0.00 0.00 0.00 78 1009.6
20260504025304 63 117 0.0 0.0 0.00 0.00 0.00 79 1009.7
20260504025202 63 117 0.0 0.0 0.00 0.00 0.00 79 1009.7
20260504025102 63 117 0.0 0.0 0.00 0.00 0.00 79 1009.6
20260504025002 63 117 0.0 0.0 0.00 0.00 0.00 79 1009.7
20260504024903 63 117 0.0 0.0 0.00 0.00 0.00 79 1009.7
20260504024802 63 114 0.0 0.0 0.00 0.00 0.00 79 1009.7
20260504024703 63 114 0.0 0.0 0.00 0.00 0.00 79 1009.6
20260504024604 63 114 0.0 0.0 0.00 0.00 0.00 79 1009.7
20260504024503 63 114 0.0 0.0 0.00 0.00 0.00 79 1009.6
20260504024404 63 114 0.0 0.0 0.00 0.00 0.00 79 1009.6
20260504024302 63 114 0.0 0.0 0.00 0.00 0.00 79 1009.6
20260504024202 63 114 0.0 0.0 0.00 0.00 0.00 79 1009.6
20260504024104 63 114 0.0 0.0 0.00 0.00 0.00 79 1009.5
20260504024004 63 114 0.0 0.0 0.00 0.00 0.00 79 1009.5
20260504023902 63 114 0.0 0.0 0.00 0.00 0.00 79 1009.5
20260504023803 63 114 0.0 0.0 0.00 0.00 0.00 78 1009.5
20260504023704 63 114 0.0 0.0 0.00 0.00 0.00 78 1009.5
20260504023603 63 114 0.0 0.0 0.00 0.00 0.00 79 1009.5
20260504023504 63 114 0.0 0.0 0.00 0.00 0.00 78 1009.5
20260504023401 63 114 0.0 0.0 0.00 0.00 0.00 78 1009.4
20260504023303 63 114 0.0 0.0 0.00 0.00 0.00 78 1009.4
20260504023202 63 114 0.0 0.0 0.00 0.00 0.00 78 1009.4
20260504023102 63 114 0.0 0.0 0.00 0.00 0.00 78 1009.4
20260504023003 63 114 0.0 0.0 0.00 0.00 0.00 78 1009.4
20260504022904 63 114 0.0 0.0 0.00 0.00 0.00 78 1009.4
20260504022802 63 114 0.0 0.0 0.00 0.00 0.00 78 1009.4
20260504022704 63 114 0.0 0.0 0.00 0.00 0.00 78 1009.4
20260504022602 63 114 0.0 0.0 0.00 0.00 0.00 78 1009.4
20260504022502 63 114 0.0 0.0 0.00 0.00 0.00 78 1009.3
20260504022402 63 114 0.0 0.0 0.00 0.00 0.00 78 1009.4
20260504022304 64 114 0.0 0.0 0.00 0.00 0.00 78 1009.4
20260504022203 64 114 0.0 0.0 0.00 0.00 0.00 78 1009.4
20260504022103 64 114 0.0 0.0 0.00 0.00 0.00 78 1009.5
20260504022004 64 114 0.0 0.0 0.00 0.00 0.00 77 1009.5
20260504021902 64 114 0.0 1.0 0.00 0.00 0.00 77 1009.4
20260504021802 64 114 0.0 1.0 0.00 0.00 0.00 77 1009.4
20260504021704 64 114 0.0 1.0 0.00 0.00 0.00 77 1009.4
20260504021602 64 114 0.0 1.0 0.00 0.00 0.00 78 1009.4
20260504021502 64 114 0.0 1.0 0.00 0.00 0.00 78 1009.4
20260504021402 64 114 0.0 1.0 0.00 0.00 0.00 78 1009.4
20260504021303 64 114 0.0 1.0 0.00 0.00 0.00 78 1009.4
20260504021203 64 114 0.0 1.0 0.00 0.00 0.00 78 1009.4
20260504021103 64 114 0.0 1.0 0.00 0.00 0.00 77 1009.4
20260504021003 64 114 0.0 1.0 0.00 0.00 0.00 77 1009.4
20260504020902 63 114 0.0 0.0 0.00 0.00 0.00 77 1009.4
20260504020803 64 114 0.0 0.0 0.00 0.00 0.00 77 1009.4
20260504020703 64 114 0.0 0.0 0.00 0.00 0.00 78 1009.4
20260504020602 64 114 0.0 0.0 0.00 0.00 0.00 77 1009.4
20260504020504 64 114 0.0 0.0 0.00 0.00 0.00 77 1009.3
20260504020403 64 114 0.0 0.0 0.00 0.00 0.00 77 1009.3
20260504020303 64 114 0.0 0.0 0.00 0.00 0.00 77 1009.3
20260504020202 64 114 0.0 0.0 0.00 0.00 0.00 77 1009.3
20260504020103 64 114 0.0 0.0 0.00 0.00 0.00 77 1009.3
20260504020003 64 114 0.0 0.0 0.00 0.00 0.00 77 1009.3
20260504015902 64 114 0.0 0.0 0.00 0.00 0.00 77 1009.3
20260504015804 64 114 0.0 0.0 0.00 0.00 0.00 77 1009.3
20260504015702 64 114 0.0 0.0 0.00 0.00 0.00 77 1009.3
20260504015603 64 114 0.0 0.0 0.00 0.00 0.00 77 1009.3
20260504015503 64 114 0.0 0.0 0.00 0.00 0.00 77 1009.3
20260504015403 64 114 0.0 0.0 0.00 0.00 0.00 77 1009.3
20260504015304 64 114 0.0 0.0 0.00 0.00 0.00 77 1009.3
20260504015202 64 114 0.0 0.0 0.00 0.00 0.00 77 1009.2
20260504015103 64 114 0.0 0.0 0.00 0.00 0.00 77 1009.2
20260504015005 64 114 0.0 0.0 0.00 0.00 0.00 77 1009.2
20260504014903 64 114 0.0 0.0 0.00 0.00 0.00 77 1009.1
20260504014802 64 114 0.0 0.0 0.00 0.00 0.00 77 1009.1
20260504014704 64 114 0.0 0.0 0.00 0.00 0.00 77 1009.1
20260504014602 64 114 0.0 0.0 0.00 0.00 0.00 77 1009.1
20260504014502 65 114 0.0 0.0 0.00 0.00 0.00 77 1009.1
20260504014403 65 114 0.0 0.0 0.00 0.00 0.00 77 1009.0
20260504014302 64 114 0.0 0.0 0.00 0.00 0.00 76 1008.9
20260504014202 64 114 0.0 0.0 0.00 0.00 0.00 76 1008.9
20260504014103 65 114 0.0 0.0 0.00 0.00 0.00 76 1009.0
20260504014003 65 114 0.0 0.0 0.00 0.00 0.00 76 1009.0
20260504013903 65 114 0.0 0.0 0.00 0.00 0.00 75 1009.0
20260504013803 65 114 0.0 0.0 0.00 0.00 0.00 75 1009.0
20260504013702 65 114 0.0 0.0 0.00 0.00 0.00 75 1009.0
20260504013604 65 114 0.0 0.0 0.00 0.00 0.00 75 1009.0
20260504013505 65 114 0.0 0.0 0.00 0.00 0.00 75 1009.0
20260504013402 65 114 0.0 0.0 0.00 0.00 0.00 75 1009.0
20260504013302 65 114 0.0 0.0 0.00 0.00 0.00 75 1009.0
20260504013159 65 114 0.0 0.0 0.00 0.00 0.00 74 1009.0
20260504013057 65 114 0.0 0.0 0.00 0.00 0.00 74 1009.0
20260504012954 66 114 0.0 0.0 0.00 0.00 0.00 74 1009.1
20260504012851 66 114 0.0 0.0 0.00 0.00 0.00 74 1009.0
20260504012745 66 114 0.0 0.0 0.00 0.00 0.00 73 1009.0
20260504012639 66 114 0.0 0.0 0.00 0.00 0.00 73 1009.0
20260504012536 66 114 0.0 0.0 0.00 0.00 0.00 72 1009.0
20260504012437 66 114 0.0 0.0 0.00 0.00 0.00 72 1009.0
20260504012332 66 114 0.0 0.0 0.00 0.00 0.00 71 1009.0
20260504012229 66 114 0.0 0.0 0.00 0.00 0.00 71 1009.0
20260504012127 66 114 0.0 0.0 0.00 0.00 0.00 71 1008.9
20260504012025 66 114 0.0 0.0 0.00 0.00 0.00 71 1009.0
20260504011924 66 114 0.0 0.0 0.00 0.00 0.00 71 1008.9
20260504011825 66 114 0.0 0.0 0.00 0.00 0.00 71 1008.9
20260504011712 66 114 0.0 0.0 0.00 0.00 0.00 71 1008.9
20260504011610 67 114 0.0 0.0 0.00 0.00 0.00 71 1008.9
20260504011511 67 114 0.0 0.0 0.00 0.00 0.00 71 1008.9
20260504011410 67 114 0.0 0.0 0.00 0.00 0.00 71 1008.9
20260504011310 67 114 0.0 0.0 0.00 0.00 0.00 72 1008.9
20260504011209 67 114 0.0 0.0 0.00 0.00 0.00 71 1008.9
20260504011109 67 114 0.0 0.0 0.00 0.00 0.00 70 1008.9
20260504011009 67 114 0.0 0.0 0.00 0.00 0.00 70 1008.9
20260504010910 67 114 0.0 0.0 0.00 0.00 0.00 70 1008.8
20260504010810 67 114 0.0 0.0 0.00 0.00 0.00 68 1008.8
20260504010711 67 114 0.0 0.0 0.00 0.00 0.00 68 1008.7
20260504010612 67 114 0.0 0.0 0.00 0.00 0.00 68 1008.7
20260504010510 68 114 0.0 0.0 0.00 0.00 0.00 68 1008.7
20260504010411 68 114 0.0 0.0 0.00 0.00 0.00 68 1008.8
20260504010310 68 114 0.0 0.0 0.00 0.00 0.00 68 1008.8
20260504010210 68 114 0.0 0.0 0.00 0.00 0.00 68 1008.7
20260504010110 68 114 0.0 0.0 0.00 0.00 0.00 68 1008.7
20260504010010 68 114 0.0 0.0 0.00 0.00 0.00 68 1008.8
20260504005902 68 114 0.0 0.0 0.00 0.00 0.00 66 1008.8
20260504005802 68 114 0.0 0.0 0.00 0.00 0.00 66 1008.7
20260504005704 68 114 0.0 0.0 0.00 0.00 0.00 66 1008.8
20260504005603 68 114 0.0 0.0 0.00 0.00 0.00 66 1008.9
20260504005502 68 114 0.0 0.0 0.00 0.00 0.00 66 1008.9
20260504005403 68 114 0.0 0.0 0.00 0.00 0.00 66 1008.9
20260504005304 68 114 0.0 0.0 0.00 0.00 0.00 66 1008.9
20260504005203 69 114 0.0 0.0 0.00 0.00 0.00 66 1008.9
20260504005101 69 114 0.0 0.0 0.00 0.00 0.00 67 1008.9
20260504005004 69 114 0.0 0.0 0.00 0.00 0.00 67 1008.9
20260504004903 69 114 0.0 0.0 0.00 0.00 0.00 67 1008.8
20260504004802 69 114 0.0 0.0 0.00 0.00 0.00 67 1008.8
20260504004703 69 114 0.0 0.0 0.00 0.00 0.00 67 1008.8
20260504004602 69 114 0.0 0.0 0.00 0.00 0.00 67 1008.8
20260504004502 69 114 0.0 0.0 0.00 0.00 0.00 67 1008.9
20260504004403 69 114 0.0 0.0 0.00 0.00 0.00 67 1008.9
20260504004302 69 114 0.0 0.0 0.00 0.00 0.00 67 1009.0
20260504004203 69 114 0.0 0.0 0.00 0.00 0.00 67 1008.9
20260504004103 69 114 0.0 0.0 0.00 0.00 0.00 67 1008.9
20260504004006 69 114 0.0 0.0 0.00 0.00 0.00 66 1008.9
20260504003904 69 114 0.0 0.0 0.00 0.00 0.00 65 1008.9
20260504003803 69 114 0.0 0.0 0.00 0.00 0.00 65 1008.9
20260504003701 69 114 0.0 0.0 0.00 0.00 0.00 65 1008.9
20260504003604 70 114 0.0 0.0 0.00 0.00 0.00 65 1008.9
20260504003503 70 114 0.0 0.0 0.00 0.00 0.00 65 1008.9
20260504003404 70 114 0.0 0.0 0.00 0.00 0.00 65 1008.9
20260504003302 70 114 0.0 0.0 0.00 0.00 0.00 62 1008.9
20260504003202 70 114 0.0 0.0 0.00 0.00 0.00 62 1008.9
20260504003103 70 114 0.0 0.0 0.00 0.00 0.00 62 1008.9
20260504003005 70 114 0.0 0.0 0.00 0.00 0.00 62 1009.0
20260504002902 71 114 0.0 0.0 0.00 0.00 0.00 62 1008.9
20260504002802 71 114 0.0 0.0 0.00 0.00 0.00 62 1009.0
20260504002702 71 114 0.0 0.0 0.00 0.00 0.00 62 1008.9
20260504002604 71 114 0.0 0.0 0.00 0.00 0.00 63 1008.9
20260504002503 71 114 0.0 0.0 0.00 0.00 0.00 63 1009.0
20260504002402 71 114 0.0 0.0 0.00 0.00 0.00 60 1009.0
20260504002303 71 114 0.0 0.0 0.00 0.00 0.00 60 1009.0
20260504002204 71 114 0.0 0.0 0.00 0.00 0.00 59 1009.0
20260504002103 72 114 0.0 0.0 0.00 0.00 0.00 59 1009.1
20260504002003 72 114 0.0 0.0 0.00 0.00 0.00 61 1009.0
20260504001903 72 114 0.0 0.0 0.00 0.00 0.00 61 1009.0
20260504001803 72 114 0.0 0.0 0.00 0.00 0.00 60 1009.1
20260504001704 72 114 0.0 0.0 0.00 0.00 0.00 60 1009.0
20260504001604 72 114 0.0 0.0 0.00 0.00 0.00 60 1009.0
20260504001502 72 114 0.0 0.0 0.00 0.00 0.00 61 1009.1
20260504001402 72 114 0.0 0.0 0.00 0.00 0.00 62 1009.1
20260504001301 73 114 0.0 0.0 0.00 0.00 0.00 62 1009.0
20260504001200 73 114 0.0 0.0 0.00 0.00 0.00 62 1009.1
20260504001053 73 114 0.0 0.0 0.00 0.00 0.00 62 1009.0
20260504000953 73 114 0.0 0.0 0.00 0.00 0.00 62 1009.0
20260504000850 73 114 0.0 0.0 0.00 0.00 0.00 58 1009.0
20260504000751 73 114 0.0 0.0 0.00 0.00 0.00 58 1008.9
20260504000648 73 114 0.0 0.0 0.00 0.00 0.00 58 1009.0
20260504000548 74 114 0.0 0.0 0.00 0.00 0.00 57 1009.0
20260504000446 74 114 0.0 1.0 0.00 0.00 0.00 57 1009.0
20260504000338 74 114 0.0 1.0 0.00 0.00 0.00 57 1008.9
20260504000237 74 114 0.0 1.0 0.00 0.00 0.00 57 1009.0
20260504000136 74 114 0.0 1.0 0.00 0.00 0.00 57 1008.9
20260504000033 74 114 0.0 1.0 0.00 0.00 0.00 57 1009.0
20260503235932 74 114 0.0 1.0 0.00 0.00 0.00 57 1009.1
20260503235829 74 114 0.0 1.0 0.00 0.00 0.00 57 1009.1
20260503235726 74 114 0.0 2.0 0.00 0.00 0.00 56 1009.2
20260503235627 74 114 0.0 2.0 0.00 0.00 0.00 55 1009.1
20260503235523 74 114 0.0 2.0 0.00 0.00 0.00 55 1009.2
20260503235425 74 114 0.0 2.0 0.00 0.00 0.00 54 1009.2
20260503235318 75 114 0.0 2.0 0.00 0.00 0.00 54 1009.1
20260503235214 75 114 0.0 2.0 0.00 0.00 0.00 54 1009.2
20260503235114 75 114 0.0 2.0 0.00 0.00 0.00 55 1009.2
20260503235013 75 114 0.0 2.0 0.00 0.00 0.00 56 1009.2
20260503234908 75 114 1.0 2.0 0.00 0.00 0.00 56 1009.2
20260503234809 75 116 1.0 2.0 0.00 0.00 0.00 56 1009.2
20260503234702 75 134 0.0 2.0 0.00 0.00 0.00 56 1009.2
20260503234603 75 134 0.0 1.0 0.00 0.00 0.00 56 1009.2
20260503234502 75 110 0.0 1.0 0.00 0.00 0.00 57 1009.2
20260503234402 75 110 0.0 1.0 0.00 0.00 0.00 56 1009.1
20260503234303 75 110 0.0 1.0 0.00 0.00 0.00 56 1009.2
20260503234202 75 140 0.0 1.0 0.00 0.00 0.00 56 1009.2
20260503234103 75 233 0.0 1.0 0.00 0.00 0.00 56 1009.1
20260503234002 75 233 0.0 1.0 0.00 0.00 0.00 55 1009.2
20260503233902 75 233 0.0 1.0 0.00 0.00 0.00 55 1009.1
20260503233803 75 233 0.0 1.0 0.00 0.00 0.00 53 1009.1
20260503233702 75 233 0.0 1.0 0.00 0.00 0.00 53 1009.1
20260503233602 75 233 0.0 1.0 0.00 0.00 0.00 53 1009.1
20260503233502 75 233 0.0 1.0 0.00 0.00 0.00 53 1009.1
20260503233404 75 233 0.0 1.0 0.00 0.00 0.00 53 1009.1
20260503233302 75 235 0.0 1.0 0.00 0.00 0.00 53 1009.1
20260503233204 75 235 0.0 0.0 0.00 0.00 0.00 55 1009.1
20260503233103 75 235 0.0 1.0 0.00 0.00 0.00 55 1009.0
20260503233003 75 235 0.0 1.0 0.00 0.00 0.00 55 1009.0
20260503232902 75 235 0.0 1.0 0.00 0.00 0.00 55 1009.1
20260503232802 75 235 0.0 1.0 0.00 0.00 0.00 57 1009.1
20260503232703 75 235 0.0 1.0 0.00 0.00 0.00 57 1009.2
20260503232603 75 235 0.0 1.0 0.00 0.00 0.00 55 1009.2
20260503232503 75 235 0.0 1.0 0.00 0.00 0.00 56 1009.2
20260503232402 75 235 0.0 1.0 0.00 0.00 0.00 56 1009.2
20260503232305 75 235 0.0 1.0 0.00 0.00 0.00 56 1009.2
20260503232202 75 235 0.0 1.0 0.00 0.00 0.00 56 1009.2
20260503232102 75 235 0.0 1.0 0.00 0.00 0.00 56 1009.3
20260503232004 75 235 0.0 1.0 0.00 0.00 0.00 57 1009.2
20260503231902 75 235 0.0 2.0 0.00 0.00 0.00 57 1009.2
20260503231804 75 235 0.0 2.0 0.00 0.00 0.00 57 1009.2
20260503231704 76 204 0.0 2.0 0.00 0.00 0.00 55 1009.2
20260503231601 76 204 0.0 2.0 0.00 0.00 0.00 55 1009.3
20260503231503 76 204 0.0 2.0 0.00 0.00 0.00 56 1009.3
20260503231402 76 204 0.0 2.0 0.00 0.00 0.00 52 1009.3
20260503231303 76 204 0.0 2.0 0.00 0.00 0.00 52 1009.3
20260503231202 76 204 0.0 2.0 0.00 0.00 0.00 60 1009.4
20260503231103 76 204 0.0 2.0 0.00 0.00 0.00 54 1009.3
20260503231002 76 204 1.0 2.0 0.00 0.00 0.00 54 1009.4
20260503230902 76 204 1.0 2.0 0.00 0.00 0.00 56 1009.4
20260503230808 76 103 0.0 1.0 0.00 0.00 0.00 56 1009.4
20260503230704 76 103 0.0 1.0 0.00 0.00 0.00 56 1009.3
20260503230602 76 102 0.0 1.0 0.00 0.00 0.00 56 1009.4
20260503230502 76 102 0.0 1.0 0.00 0.00 0.00 55 1009.3
20260503230402 76 103 0.0 1.0 0.00 0.00 0.00 53 1009.3
20260503230304 76 103 0.0 1.0 0.00 0.00 0.00 57 1009.4
20260503230204 76 103 0.0 2.0 0.00 0.00 0.00 57 1009.4
20260503230004 76 100 0.0 2.0 0.00 0.00 0.00 56 1009.3
20260503225902 76 102 0.0 2.0 0.00 0.00 0.00 56 1009.2
20260503225802 76 102 0.0 2.0 0.00 0.00 0.00 56 1009.3
20260503225702 76 102 0.0 2.0 0.00 0.00 0.00 56 1009.2
20260503225603 76 102 0.0 2.0 0.00 0.00 0.00 56 1009.3
20260503225505 76 102 0.0 2.0 0.00 0.00 0.00 53 1009.3
20260503225402 76 102 0.0 2.0 0.00 0.00 0.00 53 1009.3
20260503225304 76 102 0.0 2.0 0.00 0.00 0.00 54 1009.4
20260503225201 77 313 0.0 2.0 0.00 0.00 0.00 54 1009.4
20260503225102 77 313 0.0 2.0 0.00 0.00 0.00 51 1009.4
20260503225002 77 313 0.0 2.0 0.00 0.00 0.00 51 1009.3
20260503224902 77 313 0.0 2.0 0.00 0.00 0.00 52 1009.4
20260503224804 77 310 0.0 2.0 0.00 0.00 0.00 52 1009.4
20260503224703 77 310 0.0 2.0 0.00 0.00 0.00 52 1009.5
20260503224602 76 310 0.0 2.0 0.00 0.00 0.00 54 1009.4
20260503224502 76 314 0.0 2.0 0.00 0.00 0.00 54 1009.5
20260503224404 76 314 0.0 2.0 0.00 0.00 0.00 54 1009.6
20260503224302 77 314 0.0 2.0 0.00 0.00 0.00 54 1009.5
20260503224202 77 314 1.0 2.0 0.00 0.00 0.00 54 1009.5
20260503224102 77 312 1.0 2.0 0.00 0.00 0.00 49 1009.6
20260503224005 77 323 0.0 2.0 0.00 0.00 0.00 49 1009.6
20260503223903 77 323 0.0 2.0 0.00 0.00 0.00 49 1009.6
20260503223802 77 323 0.0 2.0 0.00 0.00 0.00 49 1009.6
20260503223704 77 323 0.0 2.0 0.00 0.00 0.00 49 1009.6
20260503223604 77 323 1.0 2.0 0.00 0.00 0.00 50 1009.6
20260503223504 77 351 1.0 2.0 0.00 0.00 0.00 50 1009.6
20260503223403 77 262 0.0 1.0 0.00 0.00 0.00 52 1009.5
20260503223303 78 262 0.0 2.0 0.00 0.00 0.00 52 1009.6
20260503223205 78 262 0.0 2.0 0.00 0.00 0.00 52 1009.6
20260503223104 78 262 0.0 2.0 0.00 0.00 0.00 49 1009.5
20260503223004 78 262 0.0 2.0 0.00 0.00 0.00 49 1009.5
20260503222904 78 262 0.0 2.0 0.00 0.00 0.00 48 1009.5
20260503222803 78 262 0.0 2.0 0.00 0.00 0.00 46 1009.5
20260503222703 78 262 0.0 2.0 0.00 0.00 0.00 47 1009.5
20260503222603 78 262 0.0 2.0 0.00 0.00 0.00 47 1009.5
20260503222509 78 262 1.0 2.0 0.00 0.00 0.00 50 1009.5
20260503222404 78 252 0.0 2.0 0.00 0.00 0.00 50 1009.6
20260503222304 78 252 0.0 2.0 0.00 0.00 0.00 48 1009.6
20260503222204 78 252 0.0 2.0 0.00 0.00 0.00 48 1009.7
20260503222103 78 279 0.0 2.0 0.00 0.00 0.00 48 1009.8
20260503222004 78 279 0.0 2.0 0.00 0.00 0.00 48 1009.8
20260503221903 78 279 0.0 2.0 0.00 0.00 0.00 47 1009.8
20260503221803 78 279 1.0 2.0 0.00 0.00 0.00 47 1009.8
20260503221703 78 279 1.0 2.0 0.00 0.00 0.00 47 1009.8
20260503221603 78 289 0.0 2.0 0.00 0.00 0.00 47 1009.8
20260503221504 77 41 1.0 2.0 0.00 0.00 0.00 47 1009.8
20260503221404 77 102 0.0 1.0 0.00 0.00 0.00 47 1009.8
20260503221303 77 102 0.0 1.0 0.00 0.00 0.00 47 1009.9
20260503221205 77 102 0.0 1.0 0.00 0.00 0.00 47 1009.8
20260503221105 77 102 0.0 1.0 0.00 0.00 0.00 47 1009.8
20260503221005 77 102 0.0 1.0 0.00 0.00 0.00 53 1009.9
20260503220903 77 102 0.0 1.0 0.00 0.00 0.00 53 1009.9
20260503220806 77 102 0.0 1.0 0.00 0.00 0.00 53 1009.9
20260503220703 77 102 0.0 1.0 0.00 0.00 0.00 50 1009.9
20260503220603 77 102 0.0 2.0 0.00 0.00 0.00 50 1010.0
20260503220504 77 102 0.0 2.0 0.00 0.00 0.00 51 1010.0
20260503220403 77 102 0.0 2.0 0.00 0.00 0.00 51 1010.0
20260503220303 78 102 0.0 2.0 0.00 0.00 0.00 49 1010.1
20260503220203 78 102 0.0 2.0 0.00 0.00 0.00 49 1010.0
20260503220105 78 102 0.0 2.0 0.00 0.00 0.00 50 1009.9
20260503220004 78 102 0.0 2.0 0.00 0.00 0.00 50 1010.0
20260503215910 78 103 0.0 2.0 0.00 0.00 0.00 46 1010.1
20260503215803 78 103 1.0 2.0 0.00 0.00 0.00 50 1010.1
20260503215702 78 99 1.0 2.0 0.00 0.00 0.00 48 1010.0
20260503215603 78 99 1.0 2.0 0.00 0.00 0.00 48 1010.1
20260503215504 78 99 1.0 2.0 0.00 0.00 0.00 47 1009.9
20260503215404 78 94 1.0 2.0 0.00 0.00 0.00 48 1010.0
20260503215304 78 190 1.0 2.0 0.00 0.00 0.00 47 1010.0
20260503215205 78 190 1.0 2.0 0.00 0.00 0.00 49 1009.9
20260503215103 78 188 1.0 2.0 0.00 0.00 0.00 49 1009.9
20260503215006 78 265 1.0 2.0 0.00 0.00 0.00 53 1010.0
20260503214904 78 265 0.0 2.0 0.00 0.00 0.00 53 1009.9
20260503214803 78 264 0.0 2.0 0.00 0.00 0.00 51 1010.0
20260503214704 78 264 0.0 2.0 0.00 0.00 0.00 49 1009.9
20260503214603 78 264 0.0 2.0 0.00 0.00 0.00 47 1009.9
20260503214505 78 264 0.0 2.0 0.00 0.00 0.00 47 1009.9
20260503214403 78 264 1.0 2.0 0.00 0.00 0.00 45 1010.0
20260503214303 78 264 1.0 2.0 0.00 0.00 0.00 45 1009.9
20260503214203 78 264 1.0 2.0 0.00 0.00 0.00 43 1009.9
20260503214102 78 264 1.0 2.0 0.00 0.00 0.00 43 1009.9
20260503214005 78 264 1.0 2.0 0.00 0.00 0.00 45 1009.9
20260503213854 78 264 1.0 2.0 0.00 0.00 0.00 44 1009.9
20260503213752 78 264 1.0 2.0 0.00 0.00 0.00 46 1009.9
20260503213638 78 268 0.0 2.0 0.00 0.00 0.00 48 1010.0
20260503213535 78 268 1.0 2.0 0.00 0.00 0.00 48 1010.0
20260503213436 78 268 1.0 2.0 0.00 0.00 0.00 49 1010.0
20260503213330 78 268 1.0 2.0 0.00 0.00 0.00 49 1010.0
20260503213231 78 268 0.0 2.0 0.00 0.00 0.00 51 1010.1
20260503213127 78 268 0.0 2.0 0.00 0.00 0.00 51 1010.1
20260503213024 78 268 1.0 2.0 0.00 0.00 0.00 51 1010.2
20260503212922 78 268 1.0 2.0 0.00 0.00 0.00 51 1010.2
20260503212809 77 295 0.0 1.0 0.00 0.00 0.00 53 1010.2
20260503212705 77 295 0.0 1.0 0.00 0.00 0.00 51 1010.3
20260503212605 77 295 0.0 2.0 0.00 0.00 0.00 51 1010.2
20260503212504 77 295 0.0 2.0 0.00 0.00 0.00 52 1010.4
20260503212406 77 295 0.0 2.0 0.00 0.00 0.00 52 1010.4
20260503212305 78 295 0.0 2.0 0.00 0.00 0.00 52 1010.4
20260503212204 78 327 0.0 2.0 0.00 0.00 0.00 50 1010.4
20260503212104 78 327 0.0 2.0 0.00 0.00 0.00 47 1010.4
20260503212005 78 329 0.0 2.0 0.00 0.00 0.00 45 1010.4
20260503211904 78 329 0.0 2.0 0.00 0.00 0.00 45 1010.5
20260503211804 79 329 1.0 2.0 0.00 0.00 0.00 44 1010.4
20260503211705 79 327 1.0 2.0 0.00 0.00 0.00 46 1010.5
20260503211605 79 327 1.0 2.0 0.00 0.00 0.00 50 1010.6
20260503211505 79 147 0.0 2.0 0.00 0.00 0.00 50 1010.7
20260503211404 79 148 0.0 2.0 0.00 0.00 0.00 48 1010.7
20260503211304 79 148 0.0 2.0 0.00 0.00 0.00 49 1010.6
20260503211205 79 148 1.0 3.0 0.00 0.00 0.00 48 1010.6
20260503211106 79 148 1.0 3.0 0.00 0.00 0.00 46 1010.6
20260503211005 79 148 1.0 3.0 0.00 0.00 0.00 46 1010.6
20260503210904 79 162 1.0 3.0 0.00 0.00 0.00 42 1010.7
20260503210806 78 162 1.0 3.0 0.00 0.00 0.00 42 1010.7
20260503210704 78 162 0.0 3.0 0.00 0.00 0.00 44 1010.7
20260503210605 78 166 1.0 3.0 0.00 0.00 0.00 45 1010.6
20260503210504 78 165 1.0 3.0 0.00 0.00 0.00 45 1010.7
20260503210405 79 165 1.0 3.0 0.00 0.00 0.00 45 1010.7
20260503210304 79 164 1.0 3.0 0.00 0.00 0.00 45 1010.8
20260503210204 79 142 1.0 2.0 0.00 0.00 0.00 45 1010.8
20260503210104 79 247 0.0 2.0 0.00 0.00 0.00 44 1010.7
20260503210005 79 247 0.0 2.0 0.00 0.00 0.00 44 1010.7
20260503205904 79 247 1.0 2.0 0.00 0.00 0.00 44 1010.7
20260503205804 79 247 1.0 2.0 0.00 0.00 0.00 48 1010.7
20260503205705 79 247 2.0 2.0 0.00 0.00 0.00 46 1010.8
20260503205604 79 206 1.0 2.0 0.00 0.00 0.00 47 1010.8
20260503205504 79 333 0.0 2.0 0.00 0.00 0.00 47 1010.8
20260503205405 79 331 0.0 2.0 0.00 0.00 0.00 47 1010.7
20260503205304 79 331 1.0 2.0 0.00 0.00 0.00 47 1010.7
20260503205204 79 331 1.0 2.0 0.00 0.00 0.00 47 1010.8
20260503205103 79 330 1.0 2.0 0.00 0.00 0.00 49 1010.8
20260503205005 79 330 1.0 2.0 0.00 0.00 0.00 45 1010.8
20260503204904 79 164 1.0 2.0 0.00 0.00 0.00 45 1010.8
20260503204803 79 158 1.0 2.0 0.00 0.00 0.00 47 1010.8
20260503204704 79 137 1.0 2.0 0.00 0.00 0.00 47 1010.9
20260503204603 79 137 1.0 2.0 0.00 0.00 0.00 47 1010.9
20260503204504 79 223 1.0 2.0 0.00 0.00 0.00 47 1010.9
20260503204404 79 235 1.0 2.0 0.00 0.00 0.00 48 1010.9
20260503204303 78 234 1.0 2.0 0.00 0.00 0.00 50 1010.9
20260503204204 78 250 1.0 2.0 0.00 0.00 0.00 45 1011.0
20260503204104 78 250 1.0 2.0 0.00 0.00 0.00 49 1011.0
20260503204004 78 250 1.0 2.0 0.00 0.00 0.00 47 1011.0
20260503203903 78 259 1.0 2.0 0.00 0.00 0.00 47 1011.0
20260503203804 78 258 1.0 3.0 0.00 0.00 0.00 50 1011.1
20260503203703 78 259 1.0 3.0 0.00 0.00 0.00 50 1011.1
20260503203604 78 327 1.0 3.0 0.00 0.00 0.00 45 1011.1
20260503203503 78 0 1.0 3.0 0.00 0.00 0.00 45 1011.1
20260503203404 78 0 1.0 3.0 0.00 0.00 0.00 48 1011.1
20260503203304 78 0 1.0 3.0 0.00 0.00 0.00 48 1011.2
20260503203203 78 0 1.0 3.0 0.00 0.00 0.00 48 1011.2
20260503203103 78 0 1.0 3.0 0.00 0.00 0.00 48 1011.3
20260503203003 78 0 1.0 3.0 0.00 0.00 0.00 45 1011.3
20260503202904 78 0 1.0 3.0 0.00 0.00 0.00 45 1011.4
20260503202803 78 345 1.0 2.0 0.00 0.00 0.00 45 1011.3
20260503202703 77 124 1.0 2.0 0.00 0.00 0.00 45 1011.4
20260503202604 77 220 1.0 2.0 0.00 0.00 0.00 45 1011.3
20260503202503 77 220 1.0 2.0 0.00 0.00 0.00 53 1011.3
20260503202404 77 219 1.0 2.0 0.00 0.00 0.00 53 1011.3
20260503202304 77 109 0.0 2.0 0.00 0.00 0.00 50 1011.3
20260503202203 76 109 0.0 2.0 0.00 0.00 0.00 50 1011.3
20260503202104 76 109 0.0 2.0 0.00 0.00 0.00 50 1011.3
20260503202004 76 109 0.0 2.0 0.00 0.00 0.00 50 1011.3
20260503201903 76 109 1.0 2.0 0.00 0.00 0.00 50 1011.3
20260503201803 77 109 1.0 2.0 0.00 0.00 0.00 51 1011.4
20260503201703 79 109 1.0 2.0 0.00 0.00 0.00 47 1011.4
20260503201602 79 114 0.0 2.0 0.00 0.00 0.00 47 1011.4
20260503201504 79 114 0.0 2.0 0.00 0.00 0.00 47 1011.4
20260503201404 79 114 0.0 2.0 0.00 0.00 0.00 47 1011.4
20260503201303 80 114 0.0 2.0 0.00 0.00 0.00 49 1011.5